Location: Norton
(51.3000°N, 0.8167°E)
Time: 00:53:06
(UTC+00:00)

Cosmos 2333 Rocket - Pass Details

Date: 03 March 2021
Orbit: 837 x 864 km, 70.8° (Epoch: 13 April)

Event Time Altitude Azimuth Distance (km) Brightness Sun altitude
Rises 22:17:07 0° 260° (W) 3,409 5.6 -39.6°
Reaches altitude 10° 22:20:10 10° 276° (W) 2,482 5.0 -39.9°
Maximum altitude 22:24:29 22° 325° (NW) 1,806 4.4 -40.3°
Drops below altitude 10° 22:28:51 10° 15° (NNE) 2,503 5.0 -40.6°
Sets 22:31:56 0° 31° (NNE) 3,447 5.7 -40.9°
